This demonstration page uses our WeatherBlox Daily Observations layout. Learn more.

Left ArrowRight Arrow

39.92423, -83.80882

Hourly Observations for January 30, 2017

Temp ( °F °C ) Dew Point ( °F °C ) Humidity (%) Winds ( mph kmh ) Pressure ( in mb ) Visibility ( mi km ) Precip ( " mm )
12:14 am 00:14 Cloudy with Light Snow 25 -4 19 -7 80 80 W 9 15 29.88 1012 9 14.48406 0 0.0254
12:23 am 00:23 Cloudy with Light Snow 25 -4 21 -6 86 86 W 14 22 29.88 1012 7 11.26538 0 0.0254
12:56 am 00:56 Cloudy with Light Snow 25 -3.9 21 -6.1 85 85 W 13 20 29.88 1012 7 11.26538 0 0.0254
1:56 am 01:56 Cloudy with Light Snow 25 -3.9 21 -6.1 85 85 W 14 22 29.89 1012 7 11.26538 0 0.0254
2:48 am 02:48 Cloudy with Light Snow 25 -4 21 -6 86 86 W 13 20 29.91 1013 2.5 4.02335 0 0.0254
2:56 am 02:56 Cloudy with Light Snow 24 -4.4 21 -6.1 88 88 WNW 13 20 29.9 1012 2 3.21868 0 0.0254
3:08 am 03:08 Cloudy with Light Snow 25 -4 21 -6 86 86 W 16 26 29.91 1013 3 4.82802 0 0.0254
3:56 am 03:56 Cloudy with Light Snow 23 -5 20 -6.7 88 88 WNW 14 22 29.91 1013 9 14.48406 0 0.0254
4:41 am 04:41 Cloudy with Light Snow 21 -6 19 -7 93 93 WNW 12 19 29.97 1015 9 14.48406 0 0.0254
4:56 am 04:56 Cloudy 22 -5.6 19 -7.2 89 89 W 10 17 29.93 1014 10 16.0934 0 0.0254
5:35 am 05:35 Mostly Cloudy 21 -6 18 -8 86 86 W 13 20 30 1016 10 16.0934 0 0
5:56 am 05:56 Cloudy 22 -5.6 18 -7.8 85 85 W 15 24 29.96 1014 10 16.0934 0 0
6:45 am 06:45 Mostly Cloudy 21 -6 14 -10 74 74 W 12 19 30.03 1017 10 16.0934 0 0
6:56 am 06:56 Partly Cloudy 20 -6.7 14 -10 78 78 W 13 20 29.98 1015 10 16.0934 0 0
7:56 am 07:56 Sunny 18 -7.8 14 -10 84 84 W 10 17 30 1016 10 16.0934 0 0
8:36 am 08:36 Mostly Cloudy 19 -7 14 -10 79 79 W 12 19 30.06 1018 10 16.0934 0 0
8:56 am 08:56 Cloudy 21 -6.1 14 -10 74 74 W 14 22 30.02 1017 10 16.0934 0 0
9:24 am 09:24 Mostly Cloudy 21 -6 16 -9 80 80 W 12 19 30.09 1019 10 16.0934 0 0
9:56 am 09:56 Cloudy 22 -5.6 15 -9.4 75 75 WNW 12 19 30.04 1017 10 16.0934 0 0
10:56 am 10:56 Sunny 25 -3.9 17 -8.3 72 72 W 10 17 30.05 1018 10 16.0934 0 0
11:56 am 11:56 Mostly Cloudy 26 -3.3 17 -8.3 69 69 VRB 7 11 30.05 1018 10 16.0934 0 0
12:22 pm 12:22 Cloudy 27 -3 18 -8 69 69 W 9 15 30.06 1018 10 16.0934 0 0
12:56 pm 12:56 Cloudy 29 -1.7 17 -8.3 61 61 SW 15 24 30.03 1017 10 16.0934 0 0
1:56 pm 13:56 Mostly Sunny 28 -2.2 16 -8.9 60 60 SW 12 19 30 1016 10 16.0934 0 0
2:56 pm 14:56 Sunny 29 -1.7 15 -9.4 56 56 W 16 26 29.99 1016 10 16.0934 0 0
3:56 pm 15:56 Sunny 29 -1.7 15 -9.4 56 56 WSW 15 24 29.99 1016 10 16.0934 0 0
4:56 pm 16:56 Sunny 29 -1.7 16 -8.9 58 58 W 14 22 30.01 1016 10 16.0934 0 0
5:56 pm 17:56 Cloudy 28 -2.2 16 -8.9 60 60 SSW 7 11 30 1016 10 16.0934 0 0
6:56 pm 18:56 Cloudy 29 -1.7 15 -9.4 56 56 S 7 11 29.98 1015 10 16.0934 0 0
7:56 pm 19:56 Mostly Clear 29 -1.7 17 -8.3 61 61 S 12 19 29.92 1013 10 16.0934 0 0
8:56 pm 20:56 Partly Cloudy 28 -2.2 18 -7.8 66 66 S 12 19 29.87 1011 10 16.0934 0 0
9:56 pm 21:56 Cloudy 30 -1.1 19 -7.2 64 64 S 8 13 29.86 1011 10 16.0934 0 0
10:56 pm 22:56 Cloudy 30 -1.1 20 -6.7 66 66 S 9 15 29.81 1010 10 16.0934 0 0
11:56 pm 23:56 Cloudy 31 -0.6 21 -6.1 67 67 S 12 19 29.75 1008 10 16.0934 0 0

Powered by AerisWeather